[[{"header":{"parameterUnit":"m.s-1","parameterCategory":1,"la1":30.2991,"la2":30.254,"lo1":-89.0895,"lo2":-89.0444,"dy":0.0017,"dx":0.0017,"nx":28,"ny":28,"refTime":"2025-08-31T21:00:00:Z","depth":0,"parameterNumber":2,"parameterNumberName":"U-component_of_WINDS"},"data":[0,0,0,0,0,0,0,0,0,0,0,0,0,0,0,0,0,0,0,0,0,0,0,0,0,0,0,0,0,0,0,0,0,0,0,0,0,0,0,0,0,0,0,0,0,0,0,0,0,0,0,0,0,0,0,0,0,0,-2.6615,-2.6614,0,-2.6559,-2.6558,-2.6557,-2.6479,-2.6477,-2.6476,-2.6475,-2.6418,-2.6418,-2.6418,0,0,0,0,0,0,0,0,0,0,0,0,0,-2.6658,-2.6658,-2.6615,-2.6614,-2.6614,-2.6559,-2.6558,-2.6557,-2.6479,-2.6477,-2.6476,-2.6474,-2.6418,-2.6418,-2.6418,0,0,0,0,0,0,0,0,0,0,0,0,0,-2.6624,-2.6657,-2.6615,-2.6568,-2.6563,-2.6559,-2.6558,-2.6557,-2.6479,-2.6477,-2.6475,-2.6473,-2.6419,-2.6418,-2.6418,-2.6455,0,0,-2.6417,-2.6416,0,0,0,0,0,0,0,0,-2.6626,-2.6623,-2.6576,-2.6571,-2.6566,-2.6524,-2.6552,-2.6523,-2.648,-2.6511,-2.6475,-2.6472,-2.6455,-2.6452,-2.6445,-2.6453,-2.645,-2.6417,-2.6416,-2.6416,-2.6416,0,0,0,0,0,0,0,-2.6629,-2.6625,-2.6593,-2.6575,-2.6569,-2.6551,-2.6544,-2.6546,-2.6495,-2.6508,-2.6502,-2.6497,-2.6452,-2.6446,-2.6444,-2.645,-2.6417,-2.6416,-2.6416,-2.6416,-2.6488,-2.649,0,0,0,0,0,0,-2.6638,-2.6627,-2.6595,-2.6591,-2.6592,-2.6551,-2.6544,-2.6539,-2.6495,-2.6486,-2.6499,-2.6493,-2.6448,-2.6444,-2.6441,-2.6484,-2.6416,-2.6416,-2.6416,-2.6486,-2.6488,-2.6491,0,0,0,0,0,0,-2.6639,-2.6636,-2.6597,-2.6608,-2.6601,-2.6553,-2.6549,-2.6539,-2.6533,-2.6487,-2.6478,-2.6502,-2.6446,-2.6442,-2.6453,-2.6481,-2.6416,-2.6415,-2.6483,-2.6486,-2.6489,-2.657,0,0,0,0,0,0,-2.6641,-2.6637,-2.665,-2.6608,-2.6601,-2.6609,-2.655,-2.654,-2.6532,-2.6525,-2.6488,-2.648,-2.6444,-2.6454,-2.6453,-2.648,-2.6415,-2.648,-2.6485,-2.6488,-2.6565,-2.6576,-2.6585,0,0,0,0,0,-2.6642,-2.6674,-2.6651,-2.6647,-2.6616,-2.6611,-2.6606,-2.6564,-2.6535,-2.6548,-2.6519,-2.6481,-2.6478,-2.6456,-2.6454,-2.6481,-2.6478,-2.6483,-2.6488,-2.656,-2.6573,-2.6585,0,0,0,0,0,0,-2.672,-2.6668,-2.6641,-2.6661,-2.6641,-2.6597,-2.6613,-2.6579,-2.6568,-2.6561,-2.651,-2.6502,-2.652,-2.6501,-2.6477,-2.6516,-2.6473,-2.6477,-2.6528,-2.6541,-2.6551,-2.6556,-2.6415,0,0,0,0,0,-2.674,-2.6739,-2.6693,-2.6715,-2.6706,-2.6662,-2.6658,-2.6627,-2.6604,-2.6596,-2.6567,-2.6548,-2.6542,-2.654,-2.6532,-2.6561,-2.6553,-2.6579,-2.6589,-2.6598,-2.6603,-2.6619,-2.6631,-2.6506,-2.6506,-2.6506,0,0,-2.678,-2.6751,-2.6754,-2.673,-2.6711,-2.6713,-2.6655,-2.6659,-2.666,-2.6596,-2.6606,-2.6585,-2.6559,-2.658,-2.6588,-2.6565,-2.6635,-2.6604,-2.6611,-2.6611,-2.6625,-2.6637,-2.6648,-2.651,-2.6509,-2.6509,0,0,-2.6854,-2.6832,-2.6848,-2.6831,-2.6803,-2.6773,-2.6777,-2.6739,-2.6723,-2.6731,-2.6684,-2.6685,-2.6677,-2.6661,-2.6652,-2.6723,-2.6688,-2.6722,-2.6776,-2.6792,-2.6802,-2.681,-2.6838,-2.6848,-2.6727,-2.6727,-2.6727,0,-2.6908,-2.6908,-2.6861,-2.6868,-2.686,-2.6803,-2.682,-2.6805,-2.6777,-2.6773,-2.6747,-2.6737,-2.6716,-2.6733,-2.6751,-2.6745,-2.6749,-2.6726,-2.6804,-2.6812,-2.6819,-2.6845,-2.6856,-2.6731,-2.6731,-2.673,-2.673,0,-2.6976,-2.6977,-2.6994,-2.6968,-2.6962,-2.6974,-2.6931,-2.693,-2.69,-2.6874,-2.6884,-2.6857,-2.6844,-2.6845,-2.6816,-2.686,-2.6847,-2.6813,-2.6769,-2.6837,-2.686,-2.6869,-2.6738,-2.6736,-2.6735,-2.6734,0,0,-2.7098,-2.7047,-2.7054,-2.7043,-2.7009,-2.7009,-2.7019,-2.7007,-2.7008,-2.699,-2.6999,-2.6994,-2.6964,-2.6954,-2.6922,-2.6937,-2.6998,-2.6902,-2.69,-2.6923,-2.7047,-2.7074,-2.7086,-2.6974,-2.6975,-2.6977,-2.705,0,-2.7167,-2.7182,-2.7141,-2.7167,-2.7168,-2.7115,-2.7124,-2.7105,-2.7081,-2.7079,-2.7052,-2.7051,-2.7009,-2.7003,-2.7015,-2.6988,-2.7022,-2.6982,-2.6984,-2.6984,-2.6994,-2.7098,-2.7126,-2.7196,-2.7059,-2.706,-2.7061,0,-2.725,-2.7238,-2.7264,-2.723,-2.7229,-2.7238,-2.7224,-2.7223,-2.7201,-2.7182,-2.7172,-2.7136,-2.7145,-2.7102,-2.7115,-2.7089,-2.7087,-2.7074,-2.7076,-2.7076,-2.7028,-2.7103,-2.7218,-2.7229,-2.7075,-2.7074,-2.7073,0,-2.734,-2.7329,-2.7344,-2.7335,-2.7295,-2.7304,-2.7288,-2.7263,-2.7259,-2.7247,-2.7244,-2.7234,-2.7228,-2.7222,-2.7184,-2.7155,-2.7204,-2.7156,-2.719,-2.7192,-2.7204,-2.7204,-2.7322,-2.72,-2.72,-2.7199,-2.7199,0,-2.7422,-2.7441,-2.7384,-2.7393,-2.7413,-2.7366,-2.7387,-2.7366,-2.7345,-2.7351,-2.7303,-2.7309,-2.7258,-2.7259,-2.723,-2.7247,-2.7244,-2.7231,-2.7224,-2.7237,-2.7239,-2.7236,-2.7231,-2.7202,-2.7202,-2.7201,-2.7201,0,-2.7526,-2.7488,-2.7501,-2.7463,-2.7454,-2.747,-2.7438,-2.7446,-2.7419,-2.7426,-2.7425,-2.7384,-2.7383,-2.7344,-2.7335,-2.7315,-2.7346,-2.7328,-2.7354,-2.7349,-2.7386,-2.7384,-2.7509,-2.7524,-2.739,-2.7391,-2.7392,0,-2.7582,-2.7596,-2.7559,-2.7559,-2.7546,-2.7546,-2.7542,-2.7497,-2.7494,-2.7471,-2.7483,-2.7478,-2.7472,-2.7473,-2.7442,-2.7436,-2.7419,-2.7463,-2.7418,-2.7431,-2.7423,-2.7423,-2.7426,-2.7473,-2.7475,-2.7476,-2.7477,0,-2.7687,-2.7668,-2.7664,-2.7653,-2.765,-2.7639,-2.7626,-2.7629,-2.758,-2.758,-2.7578,-2.7574,-2.7565,-2.7562,-2.755,-2.7534,-2.7499,-2.7492,-2.75,-2.7515,-2.753,-2.7525,-2.7382,-2.749,-2.7488,-2.7487,-2.7487,-2.7486,-2.777,-2.7781,-2.7757,-2.7755,-2.774,-2.7729,-2.7735,-2.7709,-2.7707,-2.7697,-2.767,-2.7674,-2.7653,-2.7633,-2.7621,-2.7624,-2.7602,-2.7613,-2.7617,-2.7621,-2.7629,-2.7528,-2.7622,-2.7621,-2.7621,-2.7621,-2.762,0,-2.7875,-2.7858,-2.7855,-2.7839,-2.7837,-2.7803,-2.7787,-2.7788,-2.7792,-2.7775,-2.7771,-2.777,-2.7767,-2.7737,-2.7731,-2.774,-2.7723,-2.774,-2.774,-2.7737,-2.7648,-2.7643,-2.7753,-2.7753,-2.7753,-2.7753,-2.7753,-2.7753,-2.793,-2.7946,-2.7925,-2.7934,-2.7916,-2.7919,-2.7914,-2.7904,-2.7891,-2.7893,-2.789,-2.787,-2.7849,-2.7841,-2.7837,-2.7829,-2.783,-2.7852,-2.7839,-2.7756,-2.7743,-2.7731,-2.7726,-2.7852,-2.7852,-2.7928,-2.7929,-2.7929]},{"header":{"parameterUnit":"m.s-1","parameterCategory":1,"la1":30.2991,"la2":30.254,"lo1":-89.0895,"lo2":-89.0444,"dy":0.0017,"dx":0.0017,"nx":28,"ny":28,"refTime":"2025-08-31T21:00:00:Z","depth":0,"parameterNumber":3,"parameterNumberName":"V-component_of_WINDS"},"data":[0,0,0,0,0,0,0,0,0,0,0,0,0,0,0,0,0,0,0,0,0,0,0,0,0,0,0,0,0,0,0,0,0,0,0,0,0,0,0,0,0,0,0,0,0,0,0,0,0,0,0,0,0,0,0,0,0,0,-0.3959,-0.3959,0,-0.3946,-0.3946,-0.3945,-0.3912,-0.3912,-0.3911,-0.391,-0.3898,-0.3898,-0.3898,0,0,0,0,0,0,0,0,0,0,0,0,0,-0.3956,-0.3956,-0.3959,-0.3959,-0.3958,-0.3946,-0.3946,-0.3945,-0.3912,-0.3912,-0.3911,-0.391,-0.3898,-0.3898,-0.3898,0,0,0,0,0,0,0,0,0,0,0,0,0,-0.3951,-0.3956,-0.3959,-0.394,-0.3939,-0.3946,-0.3946,-0.3945,-0.3913,-0.3912,-0.391,-0.3909,-0.3898,-0.3898,-0.3899,-0.3923,0,0,-0.39,-0.39,0,0,0,0,0,0,0,0,-0.3952,-0.3952,-0.3943,-0.3942,-0.394,-0.3929,-0.394,-0.3938,-0.3913,-0.3923,-0.391,-0.3909,-0.3909,-0.3909,-0.3909,-0.3922,-0.3922,-0.39,-0.39,-0.3901,-0.3901,0,0,0,0,0,0,0,-0.3952,-0.3952,-0.3954,-0.3943,-0.3941,-0.3933,-0.3931,-0.3939,-0.3922,-0.3922,-0.3919,-0.3918,-0.3908,-0.3908,-0.3908,-0.3921,-0.39,-0.39,-0.3901,-0.3901,-0.3956,-0.3957,0,0,0,0,0,0,-0.3955,-0.3952,-0.3954,-0.3953,-0.3943,-0.3934,-0.3932,-0.3934,-0.3922,-0.3919,-0.3919,-0.3917,-0.3908,-0.3908,-0.3908,-0.3937,-0.3901,-0.3901,-0.3901,-0.3954,-0.3956,-0.3957,0,0,0,0,0,0,-0.3955,-0.3955,-0.3955,-0.3952,-0.3951,-0.3935,-0.3938,-0.3934,-0.3934,-0.392,-0.3917,-0.3922,-0.3907,-0.3907,-0.3919,-0.3936,-0.3901,-0.3902,-0.3953,-0.3955,-0.3956,-0.3995,0,0,0,0,0,0,-0.3955,-0.3956,-0.3965,-0.3953,-0.3952,-0.3967,-0.3938,-0.3935,-0.3935,-0.3932,-0.3922,-0.392,-0.3906,-0.3919,-0.392,-0.3936,-0.3902,-0.3952,-0.3954,-0.3956,-0.3992,-0.3997,-0.4002,0,0,0,0,0,-0.3955,-0.3976,-0.3965,-0.3966,-0.3962,-0.3968,-0.3967,-0.3951,-0.3937,-0.3946,-0.3936,-0.392,-0.3933,-0.392,-0.3921,-0.3938,-0.3951,-0.3953,-0.3956,-0.399,-0.3996,-0.4002,0,0,0,0,0,0,-0.399,-0.3974,-0.3962,-0.3979,-0.3975,-0.3962,-0.3973,-0.3959,-0.3959,-0.3956,-0.3936,-0.3934,-0.395,-0.3944,-0.3931,-0.3961,-0.3939,-0.3942,-0.3965,-0.3971,-0.3976,-0.3978,-0.3902,0,0,0,0,0,-0.4,-0.4005,-0.399,-0.4007,-0.4005,-0.399,-0.3991,-0.3979,-0.3974,-0.3973,-0.3964,-0.396,-0.3964,-0.3966,-0.3969,-0.399,-0.3988,-0.4001,-0.4007,-0.4011,-0.4015,-0.4027,-0.4034,-0.3966,-0.3966,-0.3966,0,0,-0.402,-0.4012,-0.4016,-0.4014,-0.4009,-0.4016,-0.3989,-0.3996,-0.4001,-0.3974,-0.3986,-0.3979,-0.3974,-0.3991,-0.3998,-0.3987,-0.4033,-0.4014,-0.4018,-0.4019,-0.4031,-0.4037,-0.4043,-0.3967,-0.3967,-0.3967,0,0,-0.4061,-0.4054,-0.4069,-0.4064,-0.4058,-0.4047,-0.405,-0.4039,-0.4034,-0.4045,-0.4025,-0.4031,-0.4037,-0.4034,-0.4033,-0.4073,-0.4059,-0.4074,-0.4102,-0.4115,-0.412,-0.4125,-0.4141,-0.4147,-0.4077,-0.4077,-0.4077,0,-0.4088,-0.4097,-0.4078,-0.4087,-0.4087,-0.4062,-0.4077,-0.4073,-0.4068,-0.4069,-0.4056,-0.4063,-0.4057,-0.4075,-0.4085,-0.4084,-0.4089,-0.4076,-0.4121,-0.4125,-0.4129,-0.4145,-0.4151,-0.4079,-0.4079,-0.4079,-0.4079,0,-0.413,-0.4137,-0.4149,-0.4145,-0.4146,-0.4158,-0.4141,-0.4144,-0.4132,-0.4123,-0.4135,-0.4127,-0.4128,-0.4131,-0.4118,-0.4147,-0.414,-0.4124,-0.4102,-0.4138,-0.4153,-0.4158,-0.4082,-0.4082,-0.4081,-0.408,0,0,-0.4195,-0.418,-0.4185,-0.4183,-0.4173,-0.4179,-0.4189,-0.419,-0.4194,-0.419,-0.42,-0.4206,-0.4191,-0.419,-0.4177,-0.4188,-0.4222,-0.4171,-0.417,-0.4183,-0.4256,-0.427,-0.4277,-0.4211,-0.4212,-0.4213,-0.4257,0,-0.4236,-0.4254,-0.4237,-0.4259,-0.4266,-0.4241,-0.4251,-0.4247,-0.4238,-0.4242,-0.4232,-0.4238,-0.4217,-0.4216,-0.4225,-0.4216,-0.4237,-0.4212,-0.4222,-0.4223,-0.4228,-0.4284,-0.4299,-0.4341,-0.4262,-0.4263,-0.4264,0,-0.4287,-0.4286,-0.4309,-0.4299,-0.4301,-0.431,-0.431,-0.4314,-0.4308,-0.4301,-0.43,-0.4284,-0.4295,-0.4271,-0.4287,-0.427,-0.4273,-0.4269,-0.427,-0.4273,-0.4248,-0.4291,-0.4354,-0.4361,-0.4272,-0.4271,-0.4271,0,-0.4335,-0.4339,-0.4354,-0.4353,-0.4341,-0.4348,-0.4343,-0.4336,-0.4338,-0.4337,-0.4339,-0.4339,-0.434,-0.4341,-0.4326,-0.431,-0.4344,-0.4319,-0.434,-0.4341,-0.4351,-0.4351,-0.4418,-0.4348,-0.4348,-0.4348,-0.4347,0,-0.4384,-0.44,-0.4376,-0.4385,-0.4402,-0.4382,-0.4399,-0.4392,-0.4386,-0.4394,-0.4371,-0.4379,-0.4358,-0.4363,-0.4351,-0.4367,-0.4367,-0.4363,-0.436,-0.4367,-0.4368,-0.437,-0.4368,-0.4349,-0.4349,-0.4349,-0.4348,0,-0.4443,-0.4427,-0.4442,-0.4429,-0.4426,-0.4439,-0.4428,-0.4436,-0.4425,-0.4436,-0.4437,-0.4421,-0.4426,-0.4411,-0.4414,-0.4405,-0.4429,-0.442,-0.4432,-0.443,-0.4453,-0.4453,-0.4527,-0.4536,-0.4457,-0.4458,-0.4459,0,-0.4477,-0.4488,-0.4476,-0.448,-0.4477,-0.4482,-0.4484,-0.4464,-0.4467,-0.4461,-0.4471,-0.4475,-0.4477,-0.4487,-0.4476,-0.4479,-0.4471,-0.4497,-0.4472,-0.4478,-0.4475,-0.4476,-0.4478,-0.4503,-0.4504,-0.4505,-0.4506,0,-0.454,-0.4531,-0.4535,-0.4535,-0.4538,-0.4538,-0.4536,-0.454,-0.4518,-0.4523,-0.4528,-0.453,-0.4533,-0.4538,-0.4538,-0.4533,-0.4517,-0.4513,-0.4519,-0.4527,-0.4535,-0.4534,-0.4449,-0.4512,-0.4512,-0.4511,-0.4511,-0.451,-0.4589,-0.4599,-0.4592,-0.4597,-0.4593,-0.4592,-0.46,-0.4589,-0.4594,-0.4595,-0.4582,-0.4591,-0.4585,-0.4584,-0.4581,-0.4588,-0.4576,-0.4583,-0.4586,-0.4589,-0.4594,-0.4531,-0.4587,-0.4587,-0.4587,-0.4586,-0.4586,0,-0.4653,-0.4648,-0.4652,-0.465,-0.4654,-0.4636,-0.4633,-0.4638,-0.4646,-0.4641,-0.4644,-0.4651,-0.4655,-0.4644,-0.4647,-0.4655,-0.4647,-0.4656,-0.4657,-0.4657,-0.4603,-0.4599,-0.4662,-0.4662,-0.4662,-0.4662,-0.4662,-0.4662,-0.4688,-0.4704,-0.4695,-0.4709,-0.4703,-0.4711,-0.4711,-0.471,-0.4707,-0.4716,-0.4719,-0.4711,-0.4705,-0.4707,-0.471,-0.4707,-0.471,-0.4723,-0.4717,-0.4668,-0.466,-0.4653,-0.465,-0.4723,-0.4723,-0.4771,-0.4771,-0.4772]}]]